Regional Weather Roundup
Issued by NWS

Home | Current Version | Previous Version | Text Only | Print | Product List | Glossary Off
Versions: 1 2 3 4 5 6 7 8 9 10 11 12 13 14 15 16 17 18 19 20 21 22 23 24 25 26 27 28 29 30 31 32 33 34 35 36 37 38 39 40 41 42 43 44 45 46 47 48

000
ASUS45 KBOU 230707
RWRCO

WEATHER ROUNDUP FOR COLORADO
NATIONAL WEATHER SERVICE DENVER/BOULDER CO
1200 AM MST SUN NOV 23 2014

NOTE: "FAIR" INDICATES FEW OR NO CLOUDS BELOW 12000 FEET WITH NO
SIGNIFICANT WEATHER AND/OR OBSTRUCTIONS TO VISIBILITY.

COZ001>005-013-030-031-230800-
...NORTHWEST COLORADO...

CITY           SKY/WX    TMP DP  RH WIND       PRES   REMARKS
CRAIG          LGT SNOW  32  30  92 W5        29.78R FOG     WCI  27
HAYDEN         CLOUDY    30  28  93 W7        29.77S WCI  23
MEEKER         FLURRIES  32  30  92 S7        29.77F WCI  26
MOUNT WERNER   NOT AVBL
STEAMBOAT SPGS CLOUDY    29  29  99 SW6       29.76S WCI  23
WALDEN         CLOUDY    30  25  80 SW9       29.71R WCI  22
$$

COZ006>008-011-230800-
...WEST CENTRAL VALLEYS...

CITY           SKY/WX    TMP DP  RH WIND       PRES   REMARKS
GRAND JUNCTION CLOUDY    34  33  96 E6        29.82S WCI  29
MONTROSE       LGT RAIN  40  32  73 NW15      29.81S
EAGLE          MOCLDY    34  34 100 S3        29.75S
RIFLE          LGT RAIN  36  33  89 W12       29.79R
DELTA          LGT RAIN  40  36  87 W7        29.82R
NUCLA          CLOUDY    41  28  60 NW6       29.85R
$$

COZ017>023-064>068-230800-
...SOUTHWEST COLORADO...

CITY           SKY/WX    TMP DP  RH WIND       PRES   REMARKS
DURANGO        CLOUDY    32  31  96 SE5       29.83F WCI  27
CORTEZ         MOCLDY    36  34  92 CALM      29.84S
PAGOSA SPRINGS LGT SNOW  33  30  90 NE6       29.85F WCI  27
TELLURIDE      LGT SNOW  32  26  78 W7G24     29.87R WCI  25
WOLF CREEK PAS SNOW      18  18 100 SW35G53   29.82F VSB 1/2 WCI  -3
$$

COZ009-010-012-014-032>034-037-058>063-230800-
...CENTRAL COLORADO...

CITY           SKY/WX    TMP DP  RH WIND       PRES   REMARKS
ASPEN          CLOUDY    31  30  96 CALM      29.72F
BUENA VISTA    CLOUDY    32  25  74 W7        29.70S WCI  26
COPPER MTN     LGT SNOW  25  19  80 W15G26    29.75S VSB 1   WCI  12
BERTHOUD PASS  SNOW      18  12  79 MISG      29.71F VSB 1/2
COTTONWOOD PAS LGT SNOW  32  27  80 NW7G25    29.72R WCI  26
GUNNISON       CLOUDY    28  25  86 CALM      29.79F VSB 1
KREMMLING      CLOUDY    32  28  86 CALM      29.76R
LEADVILLE      FLURRIES  26  22  84 NW14      29.70F WCI  14
SALIDA         MOCLDY    37  31  78 SW16G24   29.78F
SUNLIGHT       LGT SNOW  27  25  93 CALM      29.76S VSB 3/4
WILKERSON PASS PTCLDY    23  19  86 W20G41    29.69F WCI   8
$$

COZ069>075-230800-
...SAN LUIS VALLEY/SANGRE DE CRISTO MOUNTAINS...

CITY           SKY/WX    TMP DP  RH WIND       PRES   REMARKS
ALAMOSA        CLEAR     21  14  74 NE6       29.75S WCI  13
LA VETA PASS   PTCLDY    27  18  69 S20G39    29.65F WCI  13
SAGUACHE       MIX PCPN  28  28 100 SW5       29.76S WCI  23
$$

COZ035-036-038>040-230800-
...NORTHERN COLORADO FRONT RANGE...

CITY           SKY/WX    TMP DP  RH WIND       PRES   REMARKS
DENVER INTL AP CLOUDY    42  26  53 S6        29.57R
DMNS CITY PARK   N/A     44  24  45 SW5       29.56S
AURORA         CLOUDY    43  24  47 E6        29.57F
FRONT RANGE AP CLOUDY    45  30  57 W12       29.58S
ERIE MUNI ARPT MOCLDY    46  26  45 N10G23    29.56F
BOULDER MUN AP MOCLDY    46  28  49 CALM      29.56F
CENTENNIAL     CLOUDY    41  25  53 SE10      29.57S
BROOMFIELD     MOCLDY    46  27  46 W9        29.57F
FORT COLLINS   PTCLDY    46  25  42 NW18G31   29.59S
LONGMONT       CLOUDY    49  26  40 NE5       29.58R
$$

COZ041-046-047-076>085-087-088-230800-
...PIKES PEAK/PALMER DIVIDE AND SOUTHERN FOOTHILLS...

CITY           SKY/WX    TMP DP  RH WIND       PRES   REMARKS
COLO. SPRINGS  MOCLDY    44  23  43 N9        29.60F
A. F. ACADEMY  PTCLDY    44  21  39 W16       29.60F
ELLICOTT       NOT AVBL
FALCON         NOT AVBL
FORT CARSON    CLOUDY    46  22  39 SW7       29.56F
LIMON          MOCLDY    40  22  48 W13       29.56R
MONUMENT HILL  CLOUDY    37  23  56 SW9       29.60F
TRINIDAD       CLEAR     47  20  34 NW14G29   29.60F
$$

COZ042>045-048>051-090-091-230800-
...NORTHEAST COLORADO...

CITY           SKY/WX    TMP DP  RH WIND       PRES   REMARKS
GREELEY ARPT   PTCLDY    39  25  56 NW15      29.58S
AKRON          CLOUDY    41  20  43 W7        29.56R
BURLINGTON     CLOUDY    46  15  28 N9        29.47F
WRAY           CLOUDY    43  18  36 W7        29.52S
STERLING       CLOUDY    52  30  43 W12       29.55R
HOLYOKE        CLOUDY    43  21  42 W7        29.52F
FORT MORGAN    CLOUDY    41  21  45 W3        29.58R
$$

COZ086-089-092>099-230800-
...SOUTHEAST COLORADO...

CITY           SKY/WX    TMP DP  RH WIND       PRES   REMARKS
PUEBLO         CLEAR     48  26  42 W13       29.55F
LA JUNTA       PTCLDY    45  29  53 W14       29.52S
LAMAR          MOCLDY    41  28  60 W8        29.47S
SPRINGFIELD      N/A     43  23  45 W9        29.51F
$$


USA.gov is the U.S. government's official web portal to all federal, state and local government web resources and services.